Wind_Speed
27 20 27 24 16 20 36 33 30 37 35 32 28 28 31 42 36 29 31 33 31 27 27 31 29 28 31 34 34 33 33 34 33 32 32 31 31 32 32 33 31 33 31 30
29 27 30 26 27 28 28 31 32 23 31 36 26 12 30 38 32 30 31 34 26 29 32 34 35 36 35 34 34 36 36 37 35 37 36 35 34 34 35 35 35 35 35 34
29 32 35 29 32 30 18 24 29 29 26 26 35 34 39 32 36 39 31 32 34 35 37 37 38 40 40 39 37 39 39 36 38 39 39 37 38 40 39 40 40 38 36 39
32 32 32 27 32 34 36 27 28 30 28 32 36 39 28 33 35 29 30 31 33 35 36 36 39 43 44 44 43 43 41 40 40 42 42 41 42 43 44 44 43 43 43 40
29 22 17 24 29 29 29 27 25 28 29 37 39 31 34 39 34 34 35 33 33 34 36 37 40 40 41 41 44 44 43 42 42 43 45 46 46 44 45 47 48 48 48 46
45 29 30 18 18 19 25 17 23 32 38 39 37 29 36 38 35 35 36 36 33 33 35 37 36 37 40 43 45 46 47 48 48 48 49 49 49 49 51 52 52 52 51 47
49 38 33 29 25 35 31 29 35 40 41 37 33 33 31 36 31 32 30 31 31 32 32 34 36 38 39 40 44 48 50 51 53 55 54 53 54 54 55 55 54 53 53 52
54 47 47 41 35 41 42 41 42 43 45 32 32 30 26 25 24 24 23 26 30 31 33 35 37 39 41 44 46 47 49 52 53 57 59 57 58 59 60 59 59 60 58 58
33 44 49 49 51 50 49 37 36 38 42 37 29 26 24 25 25 27 29 30 32 34 35 37 39 43 45 47 49 51 52 54 57 60 64 66 64 64 63 65 64 63 63 63
20 24 29 27 28 33 35 35 36 40 37 30 29 27 26 27 28 30 31 34 35 37 39 41 43 46 49 51 53 54 58 57 63 65 66 70 71 70 66 67 68 63 67 70
20 21 19 21 27 25 25 24 26 28 28 30 30 29 29 30 32 34 36 38 40 42 44 45 46 48 51 52 57 58 59 60 61 68 68 65 71 74 71 69 67 68 71 64
27 18 27 23 18 25 26 27 28 28 29 30 31 32 34 36 38 40 42 44 46 47 48 48 49 51 53 53 56 58 56 54 56 59 65 62 60 64 67 78 71 72 70 73
26 27 29 29 26 26 26 28 29 28 29 31 33 36 39 42 44 46 48 50 51 53 54 54 55 56 55 56 48 45 43 44 50 52 60 59 57 59 64 69 73 68 76 76
29 28 27 28 28 29 28 29 29 31 33 36 39 41 43 45 47 49 52 55 57 59 60 61 61 60 58 59 48 45 41 44 44 43 54 61 58 57 61 65 63 71 71 85
29 29 29 30 29 29 29 30 31 33 35 37 40 43 46 48 50 50 52 51 48 46 47 50 51 48 45 43 43 43 37 34 24 25 22 25 20 29 32 38 52 43 50 50
28 28 28 28 28 27 28 28 30 33 38 40 42 42 41 39 38 37 36 37 40 39 41 40 39 41 38 35 33 37 36 30 32 30 29 33 37 31 28 36 30 36 38 41
23 24 24 24 24 25 28 31 33 36 37 36 36 35 34 36 36 35 37 39 39 39 38 38 40 36 36 32 31 30 28 29 29 31 31 32 34 40 42 41 38 37 40 46
24 24 22 23 26 28 31 32 30 30 31 34 35 36 37 38 38 39 39 40 43 37 37 38 38 36 36 37 37 33 33 31 33 37 37 38 40 40 39 42 45 46 49 52
23 24 28 30 29 28 29 31 32 31 33 32 31 32 35 39 40 38 37 38 36 36 39 42 40 38 38 39 39 38 40 41 40 41 41 43 45 48 50 53 53 54 56 57
30 30 28 30 31 33 33 34 31 31 33 32 32 32 33 35 36 38 42 42 42 40 40 39 40 43 44 42 41 42 43 45 47 47 49 51 50 50 51 52 54 56 57 57
29 28 30 32 33 35 36 34 34 35 35 36 38 38 37 39 41 42 42 43 40 38 38 38 38 38 38 38 39 41 43 45 47 49 49 50 51 52 53 55 56 58 60 63
27 29 31 32 34 34 33 33 34 37 39 38 34 31 30 29 30 31 32 32 33 34 35 36 37 38 39 40 41 42 44 46 48 51 52 54 57 58 60 62 65 66 68 70
32 31 32 32 31 31 33 34 36 35 34 33 33 33 33 34 35 36 38 39 41 42 43 45 46 47 48 50 51 53 54 55 56 58 60 62 64 66 67 67 68 69 70 70
30 29 29 30 32 34 35 35 36 36 35 35 37 38 39 41 42 43 45 47 49 51 52 53 55 56 57 58 60 61 62 64 65 67 68 69 70 70 69 67 64 62 60 58
30 31 33 34 33 34 34 35 36 37 38 40 42 44 46 48 50 52 54 55 57 58 59 61 62 63 64 65 66 67 67 66 65 65 63 60 56 53 51 50 50 49 49 50
26 26 27 28 30 33 35 38 41 44 46 48 51 53 54 56 58 60 61 63 63 64 65 64 63 62 60 58 55 53 50 48 46 46 45 45 45 46 47 48 49 50 53 56
27 30 33 36 39 41 44 47 50 52 55 57 59 61 62 63 64 63 62 61 58 55 52 49 46 43 40 38 37 37 37 37 38 39 41 43 45 47 48 50 53 56 59 61
Wind_Direction
229 236 208 215 225 210 213 207 223 219 209 215 224 239 229 221 232 241 241 245 242 253 263 263 259 258 257 255 252 256 261 265 269 262 261 268 272 275 274 274 275 282 276 282
233 232 234 210 202 206 225 231 224 212 221 230 230 217 213 220 237 246 245 247 255 251 257 262 261 262 261 259 262 263 258 262 264 264 264 265 271 273 272 272 276 280 278 279
235 234 230 230 219 204 190 212 220 223 238 239 239 237 240 256 249 244 252 261 259 256 255 256 256 258 259 263 264 266 267 262 262 264 266 265 268 271 272 273 275 279 279 274
212 228 239 241 237 233 239 242 236 225 236 244 244 252 264 257 254 262 258 252 255 258 257 254 257 257 259 261 262 263 264 266 268 267 266 266 264 266 269 273 275 278 278 275
219 197 225 234 241 241 233 236 219 216 224 233 245 250 258 267 268 269 270 269 265 259 256 255 255 255 256 257 257 259 263 266 265 268 266 264 265 267 267 270 272 274 275 271
227 216 202 202 222 220 212 219 240 232 239 248 252 258 262 267 277 273 272 272 271 270 269 264 257 256 258 258 257 258 260 262 263 263 265 265 266 265 265 266 267 269 274 273
229 228 234 229 230 236 238 236 246 253 254 258 264 265 263 265 270 271 274 275 277 277 272 270 272 272 266 258 258 256 255 255 255 258 260 262 263 264 265 268 271 273 274 270
225 233 238 240 239 251 247 244 254 259 261 259 257 256 248 252 255 261 259 267 272 274 275 275 273 270 268 267 261 259 253 250 252 251 255 255 255 256 258 261 266 265 267 264
227 231 240 247 246 251 257 251 240 244 250 248 249 242 242 246 254 262 267 268 271 276 277 278 277 275 273 269 266 263 258 254 249 247 249 252 254 254 256 259 257 259 261 263
214 218 214 228 240 233 235 232 226 225 242 240 237 240 249 257 265 267 271 272 275 278 281 282 282 281 279 277 273 264 262 255 250 247 248 251 251 254 256 261 256 256 260 263
196 201 201 217 234 228 227 228 228 231 236 239 243 254 260 264 270 275 277 281 281 280 280 280 282 284 283 282 278 275 266 258 252 251 253 253 252 253 257 263 262 259 262 261
203 201 219 210 226 216 229 231 234 237 243 249 254 260 264 268 273 277 279 281 281 282 282 281 283 286 284 285 286 282 272 263 257 252 251 255 256 259 260 260 260 259 260 262
227 230 223 233 241 243 239 241 243 246 252 258 261 264 268 271 274 277 280 281 282 283 284 283 283 282 286 289 291 281 287 271 263 257 252 251 255 257 259 262 269 262 260 256
226 228 229 234 238 245 249 251 254 257 260 264 268 270 274 276 279 281 281 282 282 282 282 282 282 281 284 289 286 285 276 276 271 251 253 253 256 256 258 259 263 261 257 257
233 235 238 241 247 252 255 258 262 267 271 273 276 277 279 281 283 286 287 285 282 281 281 281 280 279 279 283 279 280 281 277 271 277 265 242 239 233 241 242 249 245 252 255
237 242 245 248 252 258 264 269 271 273 275 277 279 282 283 283 281 279 280 281 281 288 283 280 284 281 282 283 282 280 281 276 273 282 279 273 271 285 260 254 261 261 261 261
245 245 252 256 261 267 272 276 280 283 283 282 279 273 278 274 274 281 282 281 287 286 280 277 283 283 273 269 279 277 280 274 282 279 284 283 284 277 276 279 285 276 265 264
248 251 254 261 270 273 278 281 279 281 287 290 284 285 276 272 271 281 287 285 285 280 281 281 285 279 277 276 281 280 281 282 280 281 283 282 282 282 283 285 284 284 285 286
244 253 266 269 271 274 279 280 279 278 284 292 288 280 278 275 278 279 282 285 290 281 277 276 279 281 283 283 281 279 280 282 282 282 283 283 284 283 283 285 286 287 286 283
256 265 269 274 271 270 276 280 276 278 281 287 291 287 282 279 279 280 283 285 286 284 283 281 279 279 280 280 278 277 277 278 281 282 283 283 283 283 283 283 283 283 284 284
260 269 274 276 273 272 275 276 277 277 278 282 288 287 285 282 280 280 282 284 283 280 280 280 280 279 279 279 280 280 279 279 280 282 284 285 285 285 286 286 286 286 287 288
266 276 276 277 275 276 280 281 282 281 281 286 290 291 286 283 282 283 283 284 285 285 286 286 287 287 287 287 286 285 285 285 285 285 286 287 288 288 287 287 288 290 291 291
275 279 282 283 283 282 284 283 283 284 286 286 286 285 285 285 285 285 286 288 289 291 292 293 292 292 292 291 291 291 290 289 289 289 289 288 288 289 290 291 292 293 294 295
280 283 285 284 282 283 285 285 286 285 285 286 287 287 288 289 290 291 292 291 292 292 292 292 291 291 290 290 290 290 290 290 290 291 291 292 293 293 294 294 295 295 294 294
283 284 284 284 283 283 283 284 286 287 288 289 289 289 290 290 290 290 290 290 290 290 290 290 290 290 290 290 290 290 290 290 290 291 291 292 292 292 292 292 292 293 294 294
285 284 284 285 285 287 287 288 289 289 290 290 291 292 291 292 291 291 291 291 290 290 289 289 289 289 289 288 288 288 288 288 289 290 290 292 292 293 294 294 293 294 295 296
288 288 289 290 290 291 292 292 292 293 292 292 291 291 290 289 288 288 288 288 289 290 290 290 290 289 289 288 288 289 290 291 292 293 294 294 295 295 294 295 296 297 297 297
Height
5594 5599 5599 5601 5606 5609 5616 5623 5625 5633 5634 5636 5637 5641 5645 5646 5648 5653 5654 5655 5658 5662 5664 5664 5666 5669 5670 5670 5671 5673 5673 5675 5680 5680 5680 5682 5684 5684 5684 5683 5684 5683 5684 5685
5589 5592 5595 5598 5602 5606 5609 5614 5617 5621 5627 5629 5630 5633 5634 5637 5645 5645 5645 5646 5654 5655 5655 5657 5659 5660 5662 5662 5664 5664 5666 5667 5669 5669 5670 5672 5674 5675 5675 5675 5676 5675 5675 5675
5580 5583 5588 5594 5599 5601 5602 5606 5609 5615 5620 5617 5621 5622 5623 5635 5633 5632 5640 5643 5644 5645 5647 5649 5650 5650 5650 5652 5654 5655 5656 5660 5659 5660 5661 5664 5664 5663 5665 5666 5666 5666 5665 5665
5572 5576 5580 5588 5589 5593 5595 5599 5601 5606 5608 5611 5612 5614 5623 5620 5622 5629 5630 5632 5633 5635 5636 5638 5640 5641 5641 5643 5644 5644 5644 5647 5649 5650 5651 5652 5652 5653 5654 5655 5655 5655 5655 5655
5566 5569 5575 5575 5580 5584 5588 5592 5596 5598 5599 5602 5604 5613 5609 5609 5615 5616 5618 5620 5624 5625 5626 5628 5629 5630 5630 5632 5632 5632 5634 5635 5636 5637 5637 5637 5638 5641 5642 5642 5642 5643 5642 5642
5557 5563 5567 5573 5573 5577 5581 5586 5584 5588 5590 5593 5597 5603 5600 5599 5602 5604 5605 5608 5610 5611 5613 5616 5618 5619 5619 5619 5620 5621 5622 5623 5623 5624 5624 5625 5625 5626 5627 5627 5627 5628 5629 5631
5547 5553 5559 5564 5565 5569 5575 5578 5575 5577 5581 5586 5590 5592 5592 5588 5591 5593 5595 5596 5596 5597 5599 5601 5601 5603 5605 5606 5607 5607 5606 5607 5608 5608 5610 5612 5612 5612 5611 5611 5614 5615 5615 5614
5541 5544 5548 5555 5558 5559 5564 5569 5570 5570 5569 5577 5578 5579 5582 5583 5583 5586 5587 5587 5586 5587 5587 5587 5588 5589 5589 5589 5590 5591 5590 5590 5591 5593 5592 5593 5595 5596 5596 5597 5598 5599 5599 5597
5536 5544 5548 5547 5552 5554 5555 5559 5560 5562 5563 5567 5570 5571 5573 5576 5578 5577 5576 5577 5576 5575 5575 5575 5574 5573 5573 5574 5573 5573 5573 5574 5573 5574 5575 5576 5577 5579 5579 5580 5580 5581 5581 5581
5531 5536 5539 5542 5545 5545 5547 5547 5550 5554 5556 5559 5561 5563 5565 5566 5568 5566 5566 5565 5564 5563 5562 5561 5559 5558 5557 5556 5555 5554 5553 5553 5554 5554 5555 5557 5560 5561 5562 5563 5563 5563 5563 5563
5528 5532 5534 5536 5540 5539 5541 5544 5546 5547 5550 5552 5554 5555 5557 5558 5557 5557 5557 5555 5554 5553 5551 5549 5548 5546 5543 5541 5537 5535 5534 5533 5534 5535 5536 5538 5540 5542 5545 5544 5546 5548 5548 5546
5523 5525 5528 5525 5527 5533 5536 5538 5539 5542 5544 5546 5547 5548 5548 5548 5547 5547 5546 5544 5542 5540 5539 5537 5536 5533 5529 5526 5522 5518 5514 5514 5516 5517 5519 5522 5524 5525 5526 5527 5529 5531 5531 5532
5518 5519 5521 5522 5525 5528 5531 5532 5534 5537 5537 5537 5539 5539 5539 5538 5537 5535 5534 5532 5530 5528 5526 5524 5522 5519 5516 5513 5509 5505 5501 5499 5500 5501 5504 5506 5507 5508 5509 5510 5510 5512 5510 5508
5514 5516 5519 5521 5522 5523 5524 5525 5527 5528 5529 5528 5528 5528 5528 5526 5525 5523 5521 5518 5516 5514 5511 5508 5506 5503 5501 5497 5496 5493 5491 5488 5487 5486 5489 5490 5491 5492 5494 5493 5494 5489 5494 5485
5507 5510 5513 5514 5515 5515 5516 5517 5518 5518 5518 5518 5517 5516 5515 5513 5511 5508 5506 5503 5500 5497 5494 5492 5489 5489 5488 5486 5484 5482 5480 5479 5474 5474 5472 5472 5469 5470 5471 5472 5474 5474 5471 5472
5500 5502 5504 5506 5507 5508 5508 5509 5509 5509 5507 5506 5504 5502 5501 5499 5497 5495 5493 5491 5489 5486 5483 5481 5479 5478 5476 5475 5472 5470 5470 5468 5465 5463 5462 5463 5466 5463 5459 5462 5459 5460 5458 5456
5494 5496 5497 5498 5499 5499 5499 5499 5498 5496 5495 5493 5491 5490 5489 5487 5486 5484 5482 5479 5477 5475 5472 5470 5468 5466 5465 5463 5461 5459 5459 5458 5456 5454 5454 5453 5452 5450 5451 5450 5449 5447 5445 5444
5487 5488 5489 5490 5490 5490 5489 5488 5487 5486 5484 5482 5480 5478 5477 5475 5474 5472 5471 5468 5466 5464 5462 5460 5458 5455 5453 5451 5448 5447 5447 5446 5446 5444 5443 5442 5441 5440 5438 5437 5437 5435 5433 5430
5481 5481 5481 5481 5481 5481 5480 5479 5478 5477 5475 5473 5470 5468 5466 5465 5463 5462 5460 5458 5455 5453 5451 5450 5448 5445 5443 5441 5438 5435 5433 5433 5433 5431 5429 5428 5426 5425 5422 5420 5418 5415 5413 5411
5474 5474 5473 5473 5472 5472 5471 5470 5469 5468 5466 5463 5461 5458 5456 5455 5453 5451 5449 5446 5444 5442 5439 5437 5435 5433 5431 5429 5427 5424 5422 5420 5418 5417 5416 5414 5411 5409 5407 5404 5401 5399 5396 5393
5467 5467 5466 5466 5465 5463 5462 5461 5459 5458 5456 5454 5451 5449 5446 5444 5442 5439 5437 5434 5431 5429 5427 5425 5422 5420 5418 5416 5414 5412 5410 5408 5406 5403 5400 5398 5395 5392 5389 5386 5383 5380 5377 5373
5461 5460 5459 5457 5456 5454 5453 5451 5449 5447 5445 5443 5440 5437 5434 5432 5430 5428 5426 5423 5421 5418 5416 5414 5411 5409 5406 5404 5402 5399 5396 5394 5391 5389 5385 5382 5378 5375 5372 5368 5365 5360 5356 5351
5453 5452 5450 5449 5447 5445 5443 5442 5440 5437 5435 5433 5430 5428 5426 5423 5421 5418 5416 5413 5410 5407 5404 5401 5398 5395 5392 5389 5386 5383 5380 5377 5374 5371 5368 5365 5361 5357 5353 5348 5343 5339 5334 5329
5445 5443 5441 5439 5437 5435 5434 5432 5430 5427 5425 5423 5420 5418 5415 5412 5409 5406 5402 5399 5396 5393 5389 5386 5383 5379 5376 5373 5369 5365 5361 5357 5354 5350 5346 5343 5339 5335 5330 5325 5321 5316 5313 5309
5437 5435 5433 5431 5429 5427 5424 5422 5419 5417 5414 5411 5408 5405 5401 5397 5394 5390 5387 5383 5379 5376 5372 5368 5365 5361 5357 5353 5350 5346 5343 5339 5335 5332 5327 5323 5319 5315 5311 5307 5304 5300 5296 5292
5428 5426 5425 5423 5420 5417 5414 5411 5408 5404 5401 5397 5392 5389 5384 5380 5376 5372 5368 5365 5361 5357 5353 5350 5346 5342 5339 5335 5332 5328 5325 5321 5318 5314 5311 5307 5304 5300 5296 5292 5288 5284 5280 5275
5422 5419 5416 5413 5409 5405 5401 5397 5393 5389 5384 5380 5375 5371 5367 5362 5358 5354 5349 5345 5341 5338 5334 5331 5328 5324 5322 5319 5316 5314 5311 5308 5304 5301 5298 5294 5290 5286 5281 5277 5271 5266 5261 5256